Location: Chittendens Corners
(41.2320°N, 81.4940°W)
Time: 17:01:00
(UTC+00:00)

SL-08 R/B - Pass Details

Date: 29 October 2020
Orbit: 946 x 994 km, 83.0° (Epoch: 27 November)

Event Time Altitude Azimuth Distance (km) Brightness Sun altitude
Rises 23:15:43 0° 356° (N) 3,652 7.5 -10.2°
Reaches altitude 10° 23:18:17 10° 360° (N) 2,696 6.7 -10.7°
Maximum altitude 23:24:22 61° 80° (E) 1,077 4.5 -11.8°
Drops below altitude 10° 23:30:21 10° 160° (SSE) 2,659 6.7 -12.9°
Sets 23:32:52 0° 164° (SSE) 3,599 7.4 -13.4°
